1st Responders/1st Detectors/Storm Spotters Weather Summary for Whitley County, KY

Forecast Maps


Reg. NEXRAD Animation


National Fire Danger: Day 1 & 2 Map

Current NWS Watch/Warnings

SPC Convective Day 1 Outlook


Day 2 Outlook

(Click images to enlarge|Page will refresh every 5 minutes)
UK Ag. Weather Center Desktop Severe Weather Service[HERE]
Whitley County, KY Hazardous Weather Outlook Webcast
(9 AM to 9 PM Mon-Fri)
[Fast]
[Dial-up]


UKAWC 1st Detectors/1st Responders Precision Weather Forecast For WHITLEY County, Kentucky
(based on the NWS County Digital Forecast)

ISSUED AT 00:00 UTC ON WEDNESDAY AUG 23 2017
DAY TUESDAY WEDNESDAY
EDT 3HR 9P 10P 11P MIDN 1A 2A 3A 4A 5A 6A 7A 8A 9A 10A 11A NOON 1P 2P 3P 4P 5P 6P 7P
MAX/MIN -- -- -- -- -- -- -- -- -- -- -- 67° -- -- -- -- -- -- -- -- -- -- 79°
TEMP 77° 76° 74° 72° 72° 72° 72° 70° 70° 70° 70° 68° 70° 70° 70° 72° 74° 76° 77° 79° 77° 76° 74°
SKY COVER 78% 84% 89% 90% 91% 92% 90% 90% 89% 87% 84% 81% 76% 82% 79% 75% 58% 51% 43% 35% 27% 21% 16%
Clouds
DEW PT 70° 70° 70° 70° 70° 70° 70° 68° 68° 67° 67° 67° 65° 65° 65° 65° 63° 63° 61° 59° 58° 58° 58°
RH 78% 84% 90% 90% 90% 93% 93% 93% 93% 93% 93% 92% 87% 87% 81% 78% 71% 64% 55% 51% 51% 56% 57%
POP 12HR -- -- -- -- -- -- -- -- -- -- -- 96% -- -- -- -- -- -- -- -- -- -- --
RAIN/SNOW (liq.equ) -- -- -- -- -- 0.37in -- -- -- -- -- 0.09in -- -- -- -- -- 0.00in -- -- -- -- --
SNOWFALL -- -- -- -- -- 0in -- -- -- -- -- 0in -- -- -- -- -- 0in -- -- -- -- --
WIND SPEED(MPH) 6 7 6 5 5 2 2 5 5 5 5 6 6 6 5 5 6 6 6 6 6 7 6
WIND Gust(MPH) 7 7 7 7 7 7 6 6 6 6 6 7 7 7 7 7 7 7 7 7 7 7 7
WIND DIR SW SW W W W W W W NW NW N N N N N N N N N N N N N
DEW Lgt Dew Lgt Dew Mod Dew Mod Dew -- -- Hvy Dew Mod Dew Mod Dew Mod Dew Mod Dew Mod Dew Mod Dew Mod Dew Mod Dew Lgt Dew -- -- -- -- -- -- --
HeatIndex 77 76 74 72 72 72 72 70 70 70 70 68 70 70 70 72 74 76 77 79 77 76 74
Rain Showers Periods of Periods of Periods of Numerous Numerous Scattered Scattered Scattered Scattered Isolated -- -- -- -- -- -- -- -- -- -- -- -- --
Thunder Storm Scattered Scattered Isolated Isolated Isolated -- -- -- -- -- -- -- -- -- -- -- -- -- -- -- -- -- --
WIND CHILL -- -- -- -- -- -- -- -- -- -- -- -- -- -- -- -- -- -- -- -- -- -- --
SPRAY COND
DRY COND
LIVESTOCK HEATSTRESS 74.80 74.49 73.16 71.27 71.27 71.49 71.49 69.57 69.57 69.57 69.57 67.60 69.20 69.20 68.83 70.40 71.58 72.59 72.50 73.56 72.10 71.84 70.41



DAY THURSDAY FRIDAY SATURDAY SUNDAY MONDAY TUESDAY
EDT 6HR 8P 9P 10P 11P MIDN 1A 2A 3A 4A 5A 6A 7A 8A 11A 2P 5P 8P 11P 2A 5A 8A 11A 2P 5P 8P 2A 8A 2P 8P 2A 8A 2P 8P 2A 8A 2P 8P 2A 8A 2P 8P
MAX/MIN -- -- -- -- -- -- -- -- -- -- -- -- 54° -- -- 76° -- -- -- -- 54° -- -- 76° -- -- 54° 79° -- -- 58° 79° -- -- 58° 77° -- -- 58° 77° --
TEMP 72° 70° 67° 65° 65° 63° 63° 61° 59° 58° 56° 56° 58° 70° 76° 76° 70° 63° 59° 56° 56° 67° 74° 76° 70° 59° 58° 77° 72° 63° 61° 77° 72° 63° 61° 76° 70° 63° 61° 76° 70°
SKY COVER 11% 10% 8% 7% 10% 14% 17% 15% 12% 10% 13% 18% 20% 23% 27% 18% 8% 10% 11% 15% 19% 25% 31% 26% 21% 26% 56% 50% 44% 50% 65% 61% 65% 69% 77% 76% 78% 75% 77% 74% 72%
Clouds
DEW PT 59° 59° 58° 58° 58° 58° 58° 56° 56° 56° 56° 56° 56° 58° 56° 54° 56° 56° 54° 54° 52° 56° 54° 56° 56° 54° 54° 56° 59° 58° 58° 61° 61° 59° 58° 58° 61° 58° 58° 59° 63°
RH 64% 67% 73% 77% 80% 80% 83% 86% 90% 92% 96% 96% 93% 67% 51% 48% 60% 80% 83% 90% 89% 65% 50% 50% 63% 83% 86% 46% 64% 83% 89% 55% 70% 86% 89% 55% 72% 86% 90% 55% 76%
POP 12HR 1% -- -- -- -- -- -- -- -- -- -- -- 0% -- -- -- 1% -- -- -- 2% -- -- -- 1% -- 2% -- 6% -- 12% -- 25% -- 23% -- 24% -- 34% -- 32%
RAIN/SNOW (liq.equ) 0.00in -- -- -- -- -- 0.00in -- -- -- -- -- 0.00in -- 0.00in -- 0.00in -- 0.00in -- 0.00in -- 0.00in -- 0.00in -- -- -- -- -- -- -- -- -- -- -- -- -- -- -- --
SNOWFALL 0in -- -- -- -- -- 0in -- -- -- -- -- 0in -- 0in -- 0in -- 0in -- 0in -- 0in -- 0in -- -- -- -- -- -- -- -- -- -- -- -- -- -- -- --
WIND SPEED(MPH) 5 2 1 1 1 1 1 1 1 1 1 2 2 5 6 7 5 2 2 5 5 6 7 7 5 2 5 6 5 2 2 6 2 2 2 7 2 2 6 6 5
WIND DIR N N N N N N N NE NE NE NE NE NE N N N N NE NE NE NE NE NE NE NE NE NE NE NE NE NE E E E SE E NE SE SE E SE
HeatIndex 72 70 67 65 65 63 63 61 59 58 56 56 58 70 76 76 70 63 59 56 56 67 74 76 70 59 58 77 72 63 61 77 72 63 61 76 70 63 61 76 70
Rain Showers -- -- -- -- -- -- -- -- -- -- -- -- -- -- -- -- -- -- -- -- -- -- -- -- -- -- -- -- -- -- -- Chance Slight Chance Slight Chance Slight Chance Slight Chance Chance Chance Chance Chance Chance
Thunder Storm -- -- -- -- -- -- -- -- -- -- -- -- -- -- -- -- -- -- -- -- -- -- -- -- -- -- -- -- -- -- -- Chance Slight Chance Slight Chance Slight Chance Slight Chance Chance Chance Chance Chance --
WIND CHILL -- -- -- -- -- -- -- -- -- -- -- -- -- -- -- -- -- -- -- -- -- -- -- -- -- -- -- -- -- -- -- -- -- -- -- -- -- -- -- -- --
SPRAY COND
DRY COND
LIVESTOCK HEATSTRESS 69.39 67.97 65.78 64.22 64.32 62.54 62.61 60.83 58.99 58.04 56.06 56.06 58.03 67.97 71.36 71.08 67.54 62.54 58.98 56.15 56.17 65.42 69.82 71.27 67.72 58.98 58.06 71.59 69.39 62.61 60.87 72.50 69.82 62.68 60.87 71.74 68.28 62.68 60.88 71.74 68.52

Click on individual weather variable above in left-hand column (ie., TEMP, RH, QPF 12HR) to view state forecast maps






NWS 48 Hr. Forecast Maps,

Regional Hourly Observations For WHITLEY County, Kentucky
Issued at 800 PM EDT TUE AUG 22 2017
SOUTHEAST KENTUCKY
  
CITY           SKY/WX    TMP DP  RH WIND       PRES   REMARKS
JACKSON        CLOUDY    74  72  93 CALM      29.97R                  
LONDON         CLOUDY    79  72  79 SW3       29.96F                  
SOMERSET       MOCLDY    79  68  69 SW5       29.94F                  
MIDDLESBORO    PTCLDY    74  73  96 CALM      29.99S                  
MONTICELLO     CLOUDY    80  72  76 VRB5      29.95F                  


Current NOWCAST not available:
Nowcasts are not issued routinely during fair weather. Only when
precipitation or other significant weather is occuring in this county will these
forecasts be issued. Currently, there is no short term forecast in effect.


Fire Weather Forecast For WHITLEY County, KY
Provided by the National Weather Service:

Issued at: Tue Aug 22 20:05:01 EDT 2017

Whitesburg, Coal Run, Elkhorn City, Pikeville, 
and South Williamson
559 AM EDT Tue Aug 22 2017

.TODAY...
Sky/weather.........Mostly sunny becoming mostly cloudy. Isolated 
                    showers and thunderstorms in the afternoon. 
Max Temperature.....84-89. 
   24 hr trend......1 degree cooler. 
Min Humidity........50-58 percent. 
   24 hr trend......2 percent wetter. 
Wind (20 ft)........Southwest winds 5 to 10 mph. 
LAL.................4. 
Haines Index........3 or very low potential for large plume 
                    dominated fire growth. 
Mixing Height.......6600 ft agl. 
Transport Winds.....South around 5 mph increasing to southwest 
                    around 15 mph in the afternoon. 
Dispersion Index....89. 
Vent Rate...........Good (88600 knot-ft). 
ADI.................64 increasing to 74 in the afternoon. 
LVORI...............4. 
Prob of precip......30 percent. 
QPF (inches)........0.01 - 0.14 inches. 

.TONIGHT...
Sky/weather.........Mostly cloudy. Numerous showers and thunderstorms 
                    in the evening...then scattered showers and 
                    isolated thunderstorms late.
Min Temperature.....Around 68. 
   24 hr trend......2 degrees cooler. 
Max Humidity........100 percent. 
   24 hr trend......Unchanged. 
Wind (20 ft)........West winds 5 to 10 mph. 
LAL.................4. 
Haines Index........3 or very low potential for large plume 
                    dominated fire growth. 
ADI.................55 decreasing to 9 late. 
LVORI...............7. 
Prob of precip......80 percent. 
QPF (inches)........0.31 - 0.61 inches. 

.WEDNESDAY...
Sky/weather.........Cloudy then becoming mostly sunny. Scattered 
                    showers and isolated thunderstorms in the 
                    morning, then isolated showers in the early
                    afternoon. 
Max Temperature.....74-79. 
   24 hr trend......10 degrees cooler. 
Min Humidity........52-62 percent. 
   24 hr trend......5 percent wetter. 
Wind (20 ft)........Northwest winds around 5 mph. 
LAL.................3. 
Haines Index........2 or very low potential for large plume 
                    dominated fire growth. 
Mixing Height.......4700 ft agl. 
Transport Winds.....Northwest 5 to 10 mph. 
Dispersion Index....29. 
Vent Rate...........Marginal (29100 knot-ft). 
ADI.................29. 
LVORI...............6. 
Prob of precip......40 percent. 
QPF (inches)........0.06 inches. 


SPC's Fire Weather Web Tool (Excellent!), SPC's Fire Weather Outlooks, NWS Fire Weather WEB, Fire Danger Class Map,
Keetch-Byram Drought Index, ROMAN Web, Haines Index ,
WFAS's 10-hr Dead Fuel Moist., WFAS's 100-hr Dead Fuel Moist., Probablity of Ignition, Visual blackness Map, Palmer Drought Index, HPC's Rainfall Forecast Maps


Hazardous Weather Outlook For WHITLEY County, Kentucky
806 PM EDT Tue Aug 22 2017

 DAY ONE  Tonight.

Thunderstorms are expected through this evening. Some storms 
could be strong, with gusty winds and heavy rainfall the main 
threats.

 DAYS TWO THROUGH SEVEN  Wednesday through Monday.

Thunderstorms are possible at times from Sunday afternoon through
Monday.

 SPOTTER INFORMATION STATEMENT  

Spotters are encouraged to report any instances of wind damage or
flooding through this evening.

Latest WHITLEY County, Kentucky Watches, Warnings and Advisories.
Additional Drought Info.: UKAWC Drought Page, Kentucky Drought Watch


7-Day Forecast For WHITLEY County, KY

THIS AFTERNOON
Warm. Mostly sunny. Isolated showers and thunderstorms in the afternoon. Scattered showers and thunderstorms late. Some thunderstorms may produce heavy rainfall in the afternoon. Highs in the lower 90s. Southwest winds around 10 mph. Chance of rain 30 percent.

TONIGHT
Periods of showers and thunderstorms in the evening, then numerous showers late. Some thunderstorms may produce damaging winds, and heavy rainfall in the evening. Lows in the upper 60s. Light winds. Chance of rain near 100 percent.

WEDNESDAY
Mostly cloudy in the morning then becoming mostly sunny. Highs in the upper 70s. Light winds.

WEDNESDAY NIGHT
Mostly clear. Lows in the upper 50s. Light winds.

THURSDAY
Sunny. Highs in the upper 70s. Light winds.

THURSDAY NIGHT
Mostly clear. Lows in the mid 50s.

FRIDAY
Mostly sunny. Highs in the upper 70s.

FRIDAY NIGHT
Partly cloudy. Lows in the upper 50s.

SATURDAY
Mostly sunny. Highs around 80.

SATURDAY NIGHT
Partly cloudy. Lows around 60.

SUNDAY
Partly sunny with a 40 percent chance of showers and thunderstorms. Highs around 80.

SUNDAY NIGHT
Mostly cloudy with a 20 percent chance of showers. Lows in the lower 60s.

MONDAY
Partly sunny with a 30 percent chance of showers and thunderstorms. Highs in the upper 70s.

Ag Weather Center, Department of Biosystems & Agricultural Engineering, University of Kentucky